Year,Month,Day,Hour,Minute,Value (Times are PST for temperature in C)
2011,04,30,00,00,6.30
2011,04,30,00,01,6.30
2011,04,30,00,02,6.30
2011,04,30,00,03,6.30
2011,04,30,00,04,6.30
2011,04,30,00,05,6.30
2011,04,30,00,06,6.20
2011,04,30,00,07,6.20
2011,04,30,00,08,6.20
2011,04,30,00,09,6.20
2011,04,30,00,10,6.20
2011,04,30,00,11,6.20
2011,04,30,00,12,6.20
2011,04,30,00,13,6.20
2011,04,30,00,14,6.20
2011,04,30,00,15,6.20
2011,04,30,00,16,6.20
2011,04,30,00,17,6.20
2011,04,30,00,18,6.20
2011,04,30,00,19,6.20
2011,04,30,00,20,6.20
2011,04,30,00,21,6.20
2011,04,30,00,22,6.20
2011,04,30,00,23,6.20
2011,04,30,00,24,6.20
2011,04,30,00,25,6.20
2011,04,30,00,26,6.20
2011,04,30,00,27,6.20
2011,04,30,00,28,6.20
2011,04,30,00,29,6.20
2011,04,30,00,30,6.20
2011,04,30,00,31,6.20
2011,04,30,00,32,6.20
2011,04,30,00,33,6.20
2011,04,30,00,34,6.20
2011,04,30,00,35,6.20
2011,04,30,00,36,6.20
2011,04,30,00,37,6.20
2011,04,30,00,38,6.20
2011,04,30,00,39,6.20
2011,04,30,00,40,6.20
2011,04,30,00,41,6.20
2011,04,30,00,42,6.20
2011,04,30,00,43,6.10
2011,04,30,00,44,6.10
2011,04,30,00,45,6.10
2011,04,30,00,46,6.10
2011,04,30,00,47,6.10
2011,04,30,00,48,6.10
2011,04,30,00,49,6.10
2011,04,30,00,50,6.10
2011,04,30,00,51,6.10
2011,04,30,00,52,6.10
2011,04,30,00,53,6.10
2011,04,30,00,54,6.10
2011,04,30,00,55,6.10
2011,04,30,00,56,6.10
2011,04,30,00,57,6.10
2011,04,30,00,58,6.10
2011,04,30,00,59,6.10
2011,04,30,01,00,6.10
2011,04,30,01,01,6.10
2011,04,30,01,02,6.10
2011,04,30,01,03,6.10
2011,04,30,01,04,6.10
2011,04,30,01,05,6.10
2011,04,30,01,06,6.10
2011,04,30,01,07,6.10
2011,04,30,01,08,6.00
2011,04,30,01,09,6.00
2011,04,30,01,10,6.00
2011,04,30,01,11,6.00
2011,04,30,01,12,6.00
2011,04,30,01,13,6.00
2011,04,30,01,14,6.00
2011,04,30,01,15,6.00
2011,04,30,01,16,6.00
2011,04,30,01,17,6.00
2011,04,30,01,18,6.00
2011,04,30,01,19,6.00
2011,04,30,01,20,6.00
2011,04,30,01,21,6.00
2011,04,30,01,22,6.00
2011,04,30,01,23,6.00
2011,04,30,01,24,6.00
2011,04,30,01,25,6.00
2011,04,30,01,26,6.00
2011,04,30,01,27,6.00
2011,04,30,01,28,6.00
2011,04,30,01,29,6.00
2011,04,30,01,30,6.00
2011,04,30,01,31,6.00
2011,04,30,01,32,6.00
2011,04,30,01,33,6.00
2011,04,30,01,34,6.00
2011,04,30,01,35,6.00
2011,04,30,01,36,6.00
2011,04,30,01,37,6.00
2011,04,30,01,38,6.00
2011,04,30,01,39,5.90
2011,04,30,01,40,5.90
2011,04,30,01,41,5.90
2011,04,30,01,42,5.90
2011,04,30,01,43,5.90
2011,04,30,01,44,5.90
2011,04,30,01,45,5.90
2011,04,30,01,46,5.90
2011,04,30,01,47,5.90
2011,04,30,01,48,5.80
2011,04,30,01,49,5.80
2011,04,30,01,50,5.80
2011,04,30,01,51,5.80
2011,04,30,01,52,5.80
2011,04,30,01,53,5.80
2011,04,30,01,54,5.80
2011,04,30,01,55,5.80
2011,04,30,01,56,5.80
2011,04,30,01,57,5.80
2011,04,30,01,58,5.80
2011,04,30,01,59,5.80
2011,04,30,02,00,5.80
2011,04,30,02,01,5.80
2011,04,30,02,02,5.80
2011,04,30,02,03,5.80
2011,04,30,02,04,5.80
2011,04,30,02,05,5.80
2011,04,30,02,06,5.80
2011,04,30,02,07,5.80
2011,04,30,02,08,5.80
2011,04,30,02,09,5.70
2011,04,30,02,10,5.70
2011,04,30,02,11,5.70
2011,04,30,02,12,5.70
2011,04,30,02,13,5.70
2011,04,30,02,14,5.70
2011,04,30,02,15,5.70
2011,04,30,02,16,5.70
2011,04,30,02,17,5.70
2011,04,30,02,18,5.70
2011,04,30,02,19,5.70
2011,04,30,02,20,5.70
2011,04,30,02,21,5.70
2011,04,30,02,22,5.70
2011,04,30,02,23,5.70
2011,04,30,02,24,5.70
2011,04,30,02,25,5.70
2011,04,30,02,26,5.70
2011,04,30,02,27,5.70
2011,04,30,02,28,5.70
2011,04,30,02,29,5.70
2011,04,30,02,30,5.70
2011,04,30,02,31,5.70
2011,04,30,02,32,5.70
2011,04,30,02,33,5.70
2011,04,30,02,34,5.70
2011,04,30,02,35,5.70
2011,04,30,02,36,5.70
2011,04,30,02,37,5.70
2011,04,30,02,38,5.70
2011,04,30,02,39,5.70
2011,04,30,02,40,5.70
2011,04,30,02,41,5.70
2011,04,30,02,42,5.70
2011,04,30,02,43,5.70
2011,04,30,02,44,5.70
2011,04,30,02,45,5.70
2011,04,30,02,46,5.60
2011,04,30,02,47,5.60
2011,04,30,02,48,5.60
2011,04,30,02,49,5.60
2011,04,30,02,50,5.60
2011,04,30,02,51,5.60
2011,04,30,02,52,5.60
2011,04,30,02,53,5.60
2011,04,30,02,54,5.60
2011,04,30,02,55,5.60
2011,04,30,02,56,5.60
2011,04,30,02,57,5.50
2011,04,30,02,58,5.50
2011,04,30,02,59,5.50
2011,04,30,03,00,5.50
2011,04,30,03,01,5.50
2011,04,30,03,02,5.50
2011,04,30,03,03,5.50
2011,04,30,03,04,5.50
2011,04,30,03,05,5.50
2011,04,30,03,06,5.40
2011,04,30,03,07,5.40
2011,04,30,03,08,5.40
2011,04,30,03,09,5.40
2011,04,30,03,10,5.40
2011,04,30,03,11,5.40
2011,04,30,03,12,5.40
2011,04,30,03,13,5.40
2011,04,30,03,14,5.40
2011,04,30,03,15,5.30
2011,04,30,03,16,5.30
2011,04,30,03,17,5.30
2011,04,30,03,18,5.30
2011,04,30,03,19,5.30
2011,04,30,03,20,5.30
2011,04,30,03,21,5.30
2011,04,30,03,22,5.30
2011,04,30,03,23,5.20
2011,04,30,03,24,5.20
2011,04,30,03,25,5.20
2011,04,30,03,26,5.20
2011,04,30,03,27,5.20
2011,04,30,03,28,5.20
2011,04,30,03,29,5.20
2011,04,30,03,30,5.20
2011,04,30,03,31,5.20
2011,04,30,03,32,5.20
2011,04,30,03,33,5.20
2011,04,30,03,34,5.20
2011,04,30,03,35,5.10
2011,04,30,03,36,5.10
2011,04,30,03,37,5.10
2011,04,30,03,38,5.10
2011,04,30,03,39,5.10
2011,04,30,03,40,5.10
2011,04,30,03,41,5.10
2011,04,30,03,42,5.10
2011,04,30,03,43,5.10
2011,04,30,03,44,5.10
2011,04,30,03,45,5.10
2011,04,30,03,46,5.10
2011,04,30,03,47,5.10
2011,04,30,03,48,5.10
2011,04,30,03,49,5.10
2011,04,30,03,50,5.10
2011,04,30,03,51,5.10
2011,04,30,03,52,5.10
2011,04,30,03,53,5.10
2011,04,30,03,54,5.10
2011,04,30,03,55,5.10
2011,04,30,03,56,5.10
2011,04,30,03,57,5.10
2011,04,30,03,58,5.10
2011,04,30,03,59,5.10
2011,04,30,04,00,5.00
2011,04,30,04,01,5.00
2011,04,30,04,02,4.90
2011,04,30,04,03,4.90
2011,04,30,04,04,4.90
2011,04,30,04,05,4.90
2011,04,30,04,06,4.80
2011,04,30,04,07,4.80
2011,04,30,04,08,4.80
2011,04,30,04,09,4.80
2011,04,30,04,10,4.80
2011,04,30,04,11,4.70
2011,04,30,04,12,4.70
2011,04,30,04,13,4.70
2011,04,30,04,14,4.70
2011,04,30,04,15,4.70
2011,04,30,04,16,4.70
2011,04,30,04,17,4.70
2011,04,30,04,18,4.60
2011,04,30,04,19,4.60
2011,04,30,04,20,4.60
2011,04,30,04,21,4.60
2011,04,30,04,22,4.50
2011,04,30,04,23,4.50
2011,04,30,04,24,4.50
2011,04,30,04,25,4.50
2011,04,30,04,26,4.40
2011,04,30,04,27,4.40
2011,04,30,04,28,4.40
2011,04,30,04,29,4.40
2011,04,30,04,30,4.30
2011,04,30,04,31,4.30
2011,04,30,04,32,4.30
2011,04,30,04,33,4.30
2011,04,30,04,34,4.20
2011,04,30,04,35,4.20
2011,04,30,04,36,4.20
2011,04,30,04,37,4.20
2011,04,30,04,38,4.10
2011,04,30,04,39,4.10
2011,04,30,04,40,4.10
2011,04,30,04,41,4.10
2011,04,30,04,42,4.00
2011,04,30,04,43,4.00
2011,04,30,04,44,3.90
2011,04,30,04,45,3.90
2011,04,30,04,46,3.90
2011,04,30,04,47,3.90
2011,04,30,04,48,3.90
2011,04,30,04,49,3.90
2011,04,30,04,50,3.80
2011,04,30,04,51,3.80
2011,04,30,04,52,3.80
2011,04,30,04,53,3.80
2011,04,30,04,54,3.80
2011,04,30,04,55,3.80
2011,04,30,04,56,3.80
2011,04,30,04,57,3.70
2011,04,30,04,58,3.70
2011,04,30,04,59,3.70
2011,04,30,05,00,3.70
2011,04,30,05,01,3.70
2011,04,30,05,02,3.70
2011,04,30,05,03,3.70
2011,04,30,05,04,3.70
2011,04,30,05,05,3.60
2011,04,30,05,06,3.60
2011,04,30,05,07,3.60
2011,04,30,05,08,3.60
2011,04,30,05,09,3.60
2011,04,30,05,10,3.60
2011,04,30,05,11,3.60
2011,04,30,05,12,3.60
2011,04,30,05,13,3.60
2011,04,30,05,14,3.50
2011,04,30,05,15,3.60
2011,04,30,05,16,3.60
2011,04,30,05,17,3.60
2011,04,30,05,18,3.60
2011,04,30,05,19,3.50
2011,04,30,05,20,3.50
2011,04,30,05,21,3.50
2011,04,30,05,22,3.50
2011,04,30,05,23,3.40
2011,04,30,05,24,3.40
2011,04,30,05,25,3.40
2011,04,30,05,26,3.50
2011,04,30,05,27,3.50
2011,04,30,05,28,3.40
2011,04,30,05,29,3.40
2011,04,30,05,30,3.40
2011,04,30,05,31,3.40
2011,04,30,05,32,3.40
2011,04,30,05,33,3.40
2011,04,30,05,34,3.40
2011,04,30,05,35,3.40
2011,04,30,05,36,3.40
2011,04,30,05,37,3.40
2011,04,30,05,38,3.40
2011,04,30,05,39,3.40
2011,04,30,05,40,3.40
2011,04,30,05,41,3.40
2011,04,30,05,42,3.40
2011,04,30,05,43,3.40
2011,04,30,05,44,3.40
2011,04,30,05,45,3.30
2011,04,30,05,46,3.30
2011,04,30,05,47,3.30
2011,04,30,05,48,3.30
2011,04,30,05,49,3.30
2011,04,30,05,50,3.30
2011,04,30,05,51,3.30
2011,04,30,05,52,3.30
2011,04,30,05,53,3.30
2011,04,30,05,54,3.30
2011,04,30,05,55,3.30
2011,04,30,05,56,3.30
2011,04,30,05,57,3.30
2011,04,30,05,58,3.30
2011,04,30,05,59,3.30
2011,04,30,06,00,3.30
2011,04,30,06,01,3.30
2011,04,30,06,02,3.30
2011,04,30,06,03,3.30
2011,04,30,06,04,3.30
2011,04,30,06,05,3.30
2011,04,30,06,06,3.30
2011,04,30,06,07,3.30
2011,04,30,06,08,3.30
2011,04,30,06,09,3.30
2011,04,30,06,10,3.30
2011,04,30,06,11,3.30
2011,04,30,06,12,3.30
2011,04,30,06,13,3.30
2011,04,30,06,14,3.30
2011,04,30,06,15,3.30
2011,04,30,06,16,3.30
2011,04,30,06,17,3.30
2011,04,30,06,18,3.30
2011,04,30,06,19,3.30
2011,04,30,06,20,3.30
2011,04,30,06,21,3.30
2011,04,30,06,22,3.30
2011,04,30,06,23,3.30
2011,04,30,06,24,3.30
2011,04,30,06,25,3.30
2011,04,30,06,26,3.30
2011,04,30,06,27,3.30
2011,04,30,06,28,3.30
2011,04,30,06,29,3.30
2011,04,30,06,30,3.30
2011,04,30,06,31,3.30
2011,04,30,06,32,3.30
2011,04,30,06,33,3.30
2011,04,30,06,34,3.30
2011,04,30,06,35,3.30
2011,04,30,06,36,3.20
2011,04,30,06,37,3.20
2011,04,30,06,38,3.20
2011,04,30,06,39,3.20
2011,04,30,06,40,3.20
2011,04,30,06,41,3.20
2011,04,30,06,42,3.20
2011,04,30,06,43,3.20
2011,04,30,06,44,3.20
2011,04,30,06,45,3.20
2011,04,30,06,46,3.20
2011,04,30,06,47,3.20
2011,04,30,06,48,3.20
2011,04,30,06,49,3.20
2011,04,30,06,50,3.20
2011,04,30,06,51,3.10
2011,04,30,06,52,3.10
2011,04,30,06,53,3.10
2011,04,30,06,54,3.10
2011,04,30,06,55,3.10
2011,04,30,06,56,3.10
2011,04,30,06,57,3.10
2011,04,30,06,58,3.10
2011,04,30,06,59,3.10
2011,04,30,07,00,3.10
2011,04,30,07,01,3.10
2011,04,30,07,02,3.10
2011,04,30,07,03,3.10
2011,04,30,07,04,3.10
2011,04,30,07,05,3.10
2011,04,30,07,06,3.10
2011,04,30,07,07,3.10
2011,04,30,07,08,3.10
2011,04,30,07,09,3.10
2011,04,30,07,10,3.10
2011,04,30,07,11,3.10
2011,04,30,07,12,3.20
2011,04,30,07,13,3.20
2011,04,30,07,14,3.20
2011,04,30,07,15,3.20
2011,04,30,07,16,3.20
2011,04,30,07,17,3.20
2011,04,30,07,18,3.20
2011,04,30,07,19,3.30
2011,04,30,07,20,3.30
2011,04,30,07,21,3.30
2011,04,30,07,22,3.30
2011,04,30,07,23,3.30
2011,04,30,07,24,3.30
2011,04,30,07,25,3.40
2011,04,30,07,26,3.40
2011,04,30,07,27,3.40
2011,04,30,07,28,3.40
2011,04,30,07,29,3.40
2011,04,30,07,30,3.50
2011,04,30,07,31,3.50
2011,04,30,07,32,3.60
2011,04,30,07,33,3.60
2011,04,30,07,34,3.60
2011,04,30,07,35,3.60
2011,04,30,07,36,3.60
2011,04,30,07,37,3.70
2011,04,30,07,38,3.70
2011,04,30,07,39,3.70
2011,04,30,07,40,3.80
2011,04,30,07,41,3.80
2011,04,30,07,42,3.80
2011,04,30,07,43,3.80
2011,04,30,07,44,3.90
2011,04,30,07,45,3.90
2011,04,30,07,46,3.90
2011,04,30,07,47,4.00
2011,04,30,07,48,4.00
2011,04,30,07,49,4.00
2011,04,30,07,50,4.10
2011,04,30,07,51,4.10
2011,04,30,07,52,4.10
2011,04,30,07,53,4.20
2011,04,30,07,54,4.20
2011,04,30,07,55,4.20
2011,04,30,07,56,4.20
2011,04,30,07,57,4.30
2011,04,30,07,58,4.30
2011,04,30,07,59,4.30
2011,04,30,08,00,4.30
2011,04,30,08,01,4.40
2011,04,30,08,02,4.40
2011,04,30,08,03,4.40
2011,04,30,08,04,4.50
2011,04,30,08,05,4.50
2011,04,30,08,06,4.50
2011,04,30,08,07,4.50
2011,04,30,08,08,4.60
2011,04,30,08,09,4.60
2011,04,30,08,10,4.70
2011,04,30,08,11,4.70
2011,04,30,08,12,4.70
2011,04,30,08,13,4.70
2011,04,30,08,14,4.70
2011,04,30,08,15,4.70
2011,04,30,08,16,4.80
2011,04,30,08,17,4.80
2011,04,30,08,18,4.80
2011,04,30,08,19,4.80
2011,04,30,08,20,4.80
2011,04,30,08,21,4.80
2011,04,30,08,22,4.80
2011,04,30,08,23,4.80
2011,04,30,08,24,4.80
2011,04,30,08,25,4.80
2011,04,30,08,26,4.90
2011,04,30,08,27,4.90
2011,04,30,08,28,4.90
2011,04,30,08,29,4.90
2011,04,30,08,30,4.90
2011,04,30,08,31,4.90
2011,04,30,08,32,4.90
2011,04,30,08,33,4.90
2011,04,30,08,34,5.00
2011,04,30,08,35,5.00
2011,04,30,08,36,5.00
2011,04,30,08,37,5.00
2011,04,30,08,38,5.10
2011,04,30,08,39,5.10
2011,04,30,08,40,5.10
2011,04,30,08,41,5.10
2011,04,30,08,42,5.10
2011,04,30,08,43,5.10
2011,04,30,08,44,5.10
2011,04,30,08,45,5.10
2011,04,30,08,46,5.10
2011,04,30,08,47,5.10
2011,04,30,08,48,5.10
2011,04,30,08,49,5.10
2011,04,30,08,50,5.10
2011,04,30,08,51,5.10
2011,04,30,08,52,5.10
2011,04,30,08,53,5.10
2011,04,30,08,54,5.10
2011,04,30,08,55,5.10
2011,04,30,08,56,5.10
2011,04,30,08,57,5.20
2011,04,30,08,58,5.20
2011,04,30,08,59,5.20
2011,04,30,09,00,5.20
2011,04,30,09,01,5.20
2011,04,30,09,02,5.30
2011,04,30,09,03,5.30
2011,04,30,09,04,5.30
2011,04,30,09,05,5.40
2011,04,30,09,06,5.40
2011,04,30,09,07,5.50
2011,04,30,09,08,5.60
2011,04,30,09,09,5.70
2011,04,30,09,10,5.80
2011,04,30,09,11,5.80
2011,04,30,09,12,5.90
2011,04,30,09,13,6.00
2011,04,30,09,14,6.10
2011,04,30,09,15,6.20
2011,04,30,09,16,6.30
2011,04,30,09,17,6.40
2011,04,30,09,18,6.50
2011,04,30,09,19,6.50
2011,04,30,09,20,6.70
2011,04,30,09,21,6.80
2011,04,30,09,22,6.90
2011,04,30,09,23,7.00
2011,04,30,09,24,7.00
2011,04,30,09,25,7.10
2011,04,30,09,26,7.10
2011,04,30,09,27,7.20
2011,04,30,09,28,7.20
2011,04,30,09,29,7.30
2011,04,30,09,30,7.40
2011,04,30,09,31,7.50
2011,04,30,09,32,7.60
2011,04,30,09,33,7.80
2011,04,30,09,34,7.80
2011,04,30,09,35,7.90
2011,04,30,09,36,8.00
2011,04,30,09,37,8.10
2011,04,30,09,38,8.10
2011,04,30,09,39,8.20
2011,04,30,09,40,8.20
2011,04,30,09,41,8.30
2011,04,30,09,42,8.40
2011,04,30,09,43,8.40
2011,04,30,09,44,8.40
2011,04,30,09,45,8.60
2011,04,30,09,46,8.60
2011,04,30,09,47,8.70
2011,04,30,09,48,8.80
2011,04,30,09,49,8.80
2011,04,30,09,50,8.80
2011,04,30,09,51,8.80
2011,04,30,09,52,8.80
2011,04,30,09,53,8.90
2011,04,30,09,54,8.90
2011,04,30,09,55,9.00
2011,04,30,09,56,9.00
2011,04,30,09,57,9.10
2011,04,30,09,58,9.10
2011,04,30,09,59,9.00
2011,04,30,10,00,8.90
2011,04,30,10,01,8.80
2011,04,30,10,02,8.80
2011,04,30,10,03,8.80
2011,04,30,10,04,8.90
2011,04,30,10,05,8.90
2011,04,30,10,06,8.90
2011,04,30,10,07,9.00
2011,04,30,10,08,9.10
2011,04,30,10,09,9.20
2011,04,30,10,10,9.20
2011,04,30,10,11,9.30
2011,04,30,10,12,9.30
2011,04,30,10,13,9.30
2011,04,30,10,14,9.30
2011,04,30,10,15,9.30
2011,04,30,10,16,9.20
2011,04,30,10,17,9.20
2011,04,30,10,18,9.10
2011,04,30,10,19,9.00
2011,04,30,10,20,8.90
2011,04,30,10,21,8.90
2011,04,30,10,22,8.90
2011,04,30,10,23,9.00
2011,04,30,10,24,9.10
2011,04,30,10,25,9.20
2011,04,30,10,26,9.20
2011,04,30,10,27,9.30
2011,04,30,10,28,9.30
2011,04,30,10,29,9.30
2011,04,30,10,30,9.40
2011,04,30,10,31,9.50
2011,04,30,10,32,9.50
2011,04,30,10,33,9.60
2011,04,30,10,34,9.60
2011,04,30,10,35,9.60
2011,04,30,10,36,9.60
2011,04,30,10,37,9.60
2011,04,30,10,38,9.60
2011,04,30,10,39,9.70
2011,04,30,10,40,9.80
2011,04,30,10,41,9.80
2011,04,30,10,42,10.00
2011,04,30,10,43,10.10
2011,04,30,10,44,10.20
2011,04,30,10,45,10.40
2011,04,30,10,46,10.50
2011,04,30,10,47,10.60
2011,04,30,10,48,10.70
2011,04,30,10,49,10.80
2011,04,30,10,50,10.90
2011,04,30,10,51,11.00
2011,04,30,10,52,11.00
2011,04,30,10,53,11.00
2011,04,30,10,54,11.00
2011,04,30,10,55,10.90
2011,04,30,10,56,10.80
2011,04,30,10,57,10.70
2011,04,30,10,58,10.60
2011,04,30,10,59,10.60
2011,04,30,11,00,10.60
2011,04,30,11,01,10.60
2011,04,30,11,02,10.60
2011,04,30,11,03,10.60
2011,04,30,11,04,10.60
2011,04,30,11,05,10.70
2011,04,30,11,06,10.80
2011,04,30,11,07,10.80
2011,04,30,11,08,10.90
2011,04,30,11,09,11.00
2011,04,30,11,10,11.10
2011,04,30,11,11,11.20
2011,04,30,11,12,11.20
2011,04,30,11,13,11.30
2011,04,30,11,14,11.30
2011,04,30,11,15,11.30
2011,04,30,11,16,11.30
2011,04,30,11,17,11.40
2011,04,30,11,18,11.40
2011,04,30,11,19,11.30
2011,04,30,11,20,11.20
2011,04,30,11,21,11.00
2011,04,30,11,22,10.90
2011,04,30,11,23,10.90
2011,04,30,11,24,10.90
2011,04,30,11,25,11.10
2011,04,30,11,26,11.20
2011,04,30,11,27,11.20
2011,04,30,11,28,11.30
2011,04,30,11,29,11.30
2011,04,30,11,30,11.30
2011,04,30,11,31,11.30
2011,04,30,11,32,11.30
2011,04,30,11,33,11.40
2011,04,30,11,34,11.40
2011,04,30,11,35,11.40
2011,04,30,11,36,11.30
2011,04,30,11,37,11.30
2011,04,30,11,38,11.30
2011,04,30,11,39,11.20
2011,04,30,11,40,11.20
2011,04,30,11,41,11.20
2011,04,30,11,42,11.30
2011,04,30,11,43,11.50
2011,04,30,11,44,11.60
2011,04,30,11,45,11.70
2011,04,30,11,46,11.80
2011,04,30,11,47,11.80
2011,04,30,11,48,11.90
2011,04,30,11,49,11.90
2011,04,30,11,50,11.90
2011,04,30,11,51,12.00
2011,04,30,11,52,12.10
2011,04,30,11,53,12.10
2011,04,30,11,54,12.10
2011,04,30,11,55,12.00
2011,04,30,11,56,12.00
2011,04,30,11,57,11.90
2011,04,30,11,58,11.80
2011,04,30,11,59,11.70
2011,04,30,12,00,11.70
2011,04,30,12,01,11.60
2011,04,30,12,02,11.60
2011,04,30,12,03,11.70
2011,04,30,12,04,11.80
2011,04,30,12,05,11.80
2011,04,30,12,06,11.90
2011,04,30,12,07,12.00
2011,04,30,12,08,12.10
2011,04,30,12,09,12.30
2011,04,30,12,10,12.50
2011,04,30,12,11,12.60
2011,04,30,12,12,12.60
2011,04,30,12,13,12.60
2011,04,30,12,14,12.50
2011,04,30,12,15,12.40
2011,04,30,12,16,12.40
2011,04,30,12,17,12.30
2011,04,30,12,18,12.30
2011,04,30,12,19,12.30
2011,04,30,12,20,12.20
2011,04,30,12,21,12.10
2011,04,30,12,22,12.10
2011,04,30,12,23,12.10
2011,04,30,12,24,12.10
2011,04,30,12,25,12.10
2011,04,30,12,26,12.10
2011,04,30,12,27,12.20
2011,04,30,12,28,12.20
2011,04,30,12,29,12.30
2011,04,30,12,30,12.30
2011,04,30,12,31,12.40
2011,04,30,12,32,12.60
2011,04,30,12,33,12.70
2011,04,30,12,34,12.90
2011,04,30,12,35,12.90
2011,04,30,12,36,12.80
2011,04,30,12,37,12.70
2011,04,30,12,38,12.60
2011,04,30,12,39,12.50
2011,04,30,12,40,12.50
2011,04,30,12,41,12.60
2011,04,30,12,42,12.70
2011,04,30,12,43,12.80
2011,04,30,12,44,13.00
2011,04,30,12,45,13.10
2011,04,30,12,46,13.10
2011,04,30,12,47,13.00
2011,04,30,12,48,13.00
2011,04,30,12,49,12.90
2011,04,30,12,50,12.80
2011,04,30,12,51,12.80
2011,04,30,12,52,12.90
2011,04,30,12,53,12.80
2011,04,30,12,54,12.70
2011,04,30,12,55,12.70
2011,04,30,12,56,12.60
2011,04,30,12,57,12.50
2011,04,30,12,58,12.40
2011,04,30,12,59,12.40
2011,04,30,13,00,12.50
2011,04,30,13,01,12.60
2011,04,30,13,02,12.80
2011,04,30,13,03,13.00
2011,04,30,13,04,13.10
2011,04,30,13,05,13.10
2011,04,30,13,06,12.90
2011,04,30,13,07,12.90
2011,04,30,13,08,12.80
2011,04,30,13,09,12.90
2011,04,30,13,10,12.90
2011,04,30,13,11,13.00
2011,04,30,13,12,13.10
2011,04,30,13,13,13.20
2011,04,30,13,14,13.20
2011,04,30,13,15,13.20
2011,04,30,13,16,13.30
2011,04,30,13,17,13.40
2011,04,30,13,18,13.50
2011,04,30,13,19,13.60
2011,04,30,13,20,13.70
2011,04,30,13,21,13.70
2011,04,30,13,22,13.60
2011,04,30,13,23,13.50
2011,04,30,13,24,13.30
2011,04,30,13,25,13.20
2011,04,30,13,26,13.30
2011,04,30,13,27,13.30
2011,04,30,13,28,13.30
2011,04,30,13,29,13.50
2011,04,30,13,30,13.60
2011,04,30,13,31,13.70
2011,04,30,13,32,13.70
2011,04,30,13,33,13.60
2011,04,30,13,34,13.40
2011,04,30,13,35,13.30
2011,04,30,13,36,13.20
2011,04,30,13,37,13.10
2011,04,30,13,38,12.90
2011,04,30,13,39,12.80
2011,04,30,13,40,13.00
2011,04,30,13,41,13.20
2011,04,30,13,42,13.40
2011,04,30,13,43,13.40
2011,04,30,13,44,13.50
2011,04,30,13,45,13.60
2011,04,30,13,46,13.60
2011,04,30,13,47,13.60
2011,04,30,13,48,13.60
2011,04,30,13,49,13.60
2011,04,30,13,50,13.60
2011,04,30,13,51,13.70
2011,04,30,13,52,13.70
2011,04,30,13,53,13.70
2011,04,30,13,54,13.70
2011,04,30,13,55,13.70
2011,04,30,13,56,13.80
2011,04,30,13,57,13.90
2011,04,30,13,58,13.80
2011,04,30,13,59,13.70
2011,04,30,14,00,13.80
2011,04,30,14,01,13.80
2011,04,30,14,02,13.70
2011,04,30,14,03,13.70
2011,04,30,14,04,13.60
2011,04,30,14,05,13.60
2011,04,30,14,06,13.50
2011,04,30,14,07,13.40
2011,04,30,14,08,13.30
2011,04,30,14,09,13.20
2011,04,30,14,10,13.30
2011,04,30,14,11,13.40
2011,04,30,14,12,13.60
2011,04,30,14,13,13.70
2011,04,30,14,14,13.70
2011,04,30,14,15,13.70
2011,04,30,14,16,13.60
2011,04,30,14,17,13.60
2011,04,30,14,18,13.50
2011,04,30,14,19,13.50
2011,04,30,14,20,13.50
2011,04,30,14,21,13.50
2011,04,30,14,22,13.50
2011,04,30,14,23,13.50
2011,04,30,14,24,13.50
2011,04,30,14,25,13.60
2011,04,30,14,26,13.60
2011,04,30,14,27,13.60
2011,04,30,14,28,13.50
2011,04,30,14,29,13.40
2011,04,30,14,30,13.30
2011,04,30,14,31,13.20
2011,04,30,14,32,13.10
2011,04,30,14,33,13.00
2011,04,30,14,34,12.90
2011,04,30,14,35,12.90
2011,04,30,14,36,12.80
2011,04,30,14,37,12.80
2011,04,30,14,38,12.80
2011,04,30,14,39,12.70
2011,04,30,14,40,12.70
2011,04,30,14,41,12.60
2011,04,30,14,42,12.60
2011,04,30,14,43,12.60
2011,04,30,14,44,12.60
2011,04,30,14,45,12.70
2011,04,30,14,46,12.80
2011,04,30,14,47,12.90
2011,04,30,14,48,13.00
2011,04,30,14,49,13.00
2011,04,30,14,50,13.00
2011,04,30,14,51,13.00
2011,04,30,14,52,12.90
2011,04,30,14,53,12.80
2011,04,30,14,54,12.70
2011,04,30,14,55,12.60
2011,04,30,14,56,12.60
2011,04,30,14,57,12.70
2011,04,30,14,58,12.80
2011,04,30,14,59,12.90
2011,04,30,15,00,12.90
2011,04,30,15,01,13.00
2011,04,30,15,02,13.10
2011,04,30,15,03,13.20
2011,04,30,15,04,13.20
2011,04,30,15,05,13.20
2011,04,30,15,06,13.20
2011,04,30,15,07,13.10
2011,04,30,15,08,12.90
2011,04,30,15,09,12.90
2011,04,30,15,10,12.80
2011,04,30,15,11,12.80
2011,04,30,15,12,12.70
2011,04,30,15,13,12.60
2011,04,30,15,14,12.60
2011,04,30,15,15,12.50
2011,04,30,15,16,12.50
2011,04,30,15,17,12.50
2011,04,30,15,18,12.40
2011,04,30,15,19,12.30
2011,04,30,15,20,12.30
2011,04,30,15,21,12.30
2011,04,30,15,22,12.20
2011,04,30,15,23,12.20
2011,04,30,15,24,12.10
2011,04,30,15,25,12.10
2011,04,30,15,26,12.10
2011,04,30,15,27,12.20
2011,04,30,15,28,12.20
2011,04,30,15,29,12.20
2011,04,30,15,30,12.30
2011,04,30,15,31,12.40
2011,04,30,15,32,12.60
2011,04,30,15,33,12.70
2011,04,30,15,34,12.90
2011,04,30,15,35,13.00
2011,04,30,15,36,13.00
2011,04,30,15,37,13.00
2011,04,30,15,38,13.00
2011,04,30,15,39,13.00
2011,04,30,15,40,12.80
2011,04,30,15,41,12.70
2011,04,30,15,42,12.70
2011,04,30,15,43,12.70
2011,04,30,15,44,12.80
2011,04,30,15,45,12.80
2011,04,30,15,46,12.80
2011,04,30,15,47,12.90
2011,04,30,15,48,12.90
2011,04,30,15,49,12.90
2011,04,30,15,50,12.80
2011,04,30,15,51,12.80
2011,04,30,15,52,12.80
2011,04,30,15,53,12.80
2011,04,30,15,54,12.80
2011,04,30,15,55,12.80
2011,04,30,15,56,12.80
2011,04,30,15,57,12.70
2011,04,30,15,58,12.60
2011,04,30,15,59,12.60
2011,04,30,16,00,12.50
2011,04,30,16,01,12.50
2011,04,30,16,02,12.40
2011,04,30,16,03,12.30
2011,04,30,16,04,12.30
2011,04,30,16,05,12.30
2011,04,30,16,06,12.30
2011,04,30,16,07,12.40
2011,04,30,16,08,12.40
2011,04,30,16,09,12.40
2011,04,30,16,10,12.40
2011,04,30,16,11,12.40
2011,04,30,16,12,12.40
2011,04,30,16,13,12.40
2011,04,30,16,14,12.50
2011,04,30,16,15,12.50
2011,04,30,16,16,12.60
2011,04,30,16,17,12.60
2011,04,30,16,18,12.60
2011,04,30,16,19,12.70
2011,04,30,16,20,12.70
2011,04,30,16,21,12.80
2011,04,30,16,22,12.80
2011,04,30,16,23,12.90
2011,04,30,16,24,13.00
2011,04,30,16,25,13.20
2011,04,30,16,26,13.30
2011,04,30,16,27,13.30
2011,04,30,16,28,13.40
2011,04,30,16,29,13.40
2011,04,30,16,30,13.50
2011,04,30,16,31,13.60
2011,04,30,16,32,13.60
2011,04,30,16,33,13.60
2011,04,30,16,34,13.60
2011,04,30,16,35,13.70
2011,04,30,16,36,13.70
2011,04,30,16,37,13.70
2011,04,30,16,38,13.70
2011,04,30,16,39,13.70
2011,04,30,16,40,13.70
2011,04,30,16,41,13.80
2011,04,30,16,42,13.80
2011,04,30,16,43,13.80
2011,04,30,16,44,13.80
2011,04,30,16,45,13.80
2011,04,30,16,46,13.80
2011,04,30,16,47,13.70
2011,04,30,16,48,13.60
2011,04,30,16,49,13.60
2011,04,30,16,50,13.60
2011,04,30,16,51,13.60
2011,04,30,16,52,13.60
2011,04,30,16,53,13.50
2011,04,30,16,54,13.50
2011,04,30,16,55,13.40
2011,04,30,16,56,13.40
2011,04,30,16,57,13.40
2011,04,30,16,58,13.40
2011,04,30,16,59,13.50
2011,04,30,17,00,13.50
2011,04,30,17,01,13.50
2011,04,30,17,02,13.40
2011,04,30,17,03,13.40
2011,04,30,17,04,13.40
2011,04,30,17,05,13.40
2011,04,30,17,06,13.40
2011,04,30,17,07,13.30
2011,04,30,17,08,13.40
2011,04,30,17,09,13.40
2011,04,30,17,10,13.30
2011,04,30,17,11,13.30
2011,04,30,17,12,13.30
2011,04,30,17,13,13.30
2011,04,30,17,14,13.30
2011,04,30,17,15,13.30
2011,04,30,17,16,13.40
2011,04,30,17,17,13.50
2011,04,30,17,18,13.60
2011,04,30,17,19,13.70
2011,04,30,17,20,13.70
2011,04,30,17,21,13.80
2011,04,30,17,22,13.80
2011,04,30,17,23,13.90
2011,04,30,17,24,13.90
2011,04,30,17,25,14.00
2011,04,30,17,26,14.00
2011,04,30,17,27,14.00
2011,04,30,17,28,14.00
2011,04,30,17,29,14.00
2011,04,30,17,30,14.00
2011,04,30,17,31,14.10
2011,04,30,17,32,14.10
2011,04,30,17,33,14.20
2011,04,30,17,34,14.20
2011,04,30,17,35,14.30
2011,04,30,17,36,14.30
2011,04,30,17,37,14.30
2011,04,30,17,38,14.30
2011,04,30,17,39,14.40
2011,04,30,17,40,14.40
2011,04,30,17,41,14.30
2011,04,30,17,42,14.30
2011,04,30,17,43,14.30
2011,04,30,17,44,14.30
2011,04,30,17,45,14.20
2011,04,30,17,46,14.10
2011,04,30,17,47,14.00